Content
SEND FEEDBACK

Daily
Averages
Monthly
Summary
United States of America

PYGA BEACH, GUAM


Home > North America > United States > Guam
Elevation: 20 feet     Latitude: 13 17N     Longitude: 144 39E

WEATHER
 
SELECT A DAY
Number of Records: 354,252;   Date Range: 1/1/95 - 11/21/14
 
SHARE

PRINT THIS DATA

[ ← Previous Day ]
WEATHER ALMANAC - OCTOBER 30, 2013
[ Next Day → ]
[ °C ]   °F
Weather ElementAverageHighLow
Temperature81.1 °F86 °F (12:53 pm)75.2 °F (5:21 am)
Dewpoint77.2 °F78.8 °F (11:58 am)73.4 °F (4:48 am)
Humidity88.1 %100 % (5:21 am)78 % (1:58 pm)
Barometer29.90 in29.96 in (9:41 pm)29.83 in (2:58 pm)
Wind Speed8.9 mph13.8 mph (5:11 am)
Wind Gust20.7 mph (5:11 am)
Weather ElementAverage
Visibility9.6 mi
Wind DirectionENE (76.8 °)

Weather ElementTotal
Precipitation0.09 in
Cooling Degree Days15.6 (Base 65)
Growing Degree Days30.6 (Base 50)
Averaged from 47 records on October 30, 2013
WEATHER CONDITIONS BREAKOUT
WIND DIRECTION BREAKOUT
WEATHER BY HOUR - OCTOBER 30, 2013
[ °C ]   °F
Local TimeTemperatureDewpointHumidityBarometerVisibilityWind DirectionWind SpeedGust SpeedPrecipitationEventsConditions
1:58 AM79.3 °F76.5 °F91 %29.89 in10.0 miEast (80°)10.4 mphClear
2:58 AM79.2 °F76.5 °F91 %29.88 in10.0 miEast (90°)5.8 mphClear
3:58 AM79.9 °F76.5 °F89 %29.88 in10.0 miEast (90°)6.9 mphScattered Clouds
4:25 AM78.8 °F77.0 °F94 %29.91 in10.0 miNE (50°)6.9 mphLight Drizzle
4:48 AM77.0 °F73.4 °F89 %29.91 in10.0 miNE (40°)9.2 mphMostly Cloudy
4:58 AM77.0 °F74.8 °F93 %29.88 in10.0 miENE (60°)6.9 mph0.00 inScattered Clouds
5:11 AM77.0 °F75.2 °F94 %29.91 in5.0 miENE (70°)13.8 mph20.7 mphRainHeavy Rain
5:16 AM77.0 °F75.2 °F94 %29.91 in2.5 miENE (70°)6.9 mph20.7 mphRainLight Rain
5:21 AM75.2 °F75.2 °F100 %29.91 in4.0 miENE (60°)5.8 mphRainLight Rain
5:24 AM75.2 °F75.2 °F100 %29.91 in9.0 miNNE (20°)1.2 mphScattered Clouds
5:58 AM76.8 °F75.0 °F94 %29.88 in10.0 miEast (90°)5.8 mph0.09 inClear
6:58 AM79.0 °F77.0 °F94 %29.91 in10.0 miEast (80°)8.1 mphClear
7:58 AM81.3 °F77.4 °F88 %29.92 in10.0 miEast (90°)10.4 mphPartly Cloudy
8:58 AM83.5 °F77.9 °F83 %29.92 in10.0 miEast (100°)9.2 mphClear
9:58 AM84.4 °F78.3 °F82 %29.92 in10.0 miEast (90°)11.5 mphClear
10:58 AM84.7 °F78.6 °F82 %29.91 in10.0 miEast (90°)12.7 mphScattered Clouds
11:58 AM84.2 °F78.8 °F84 %29.87 in10.0 miEast (80°)11.5 mphMostly Cloudy
12:08 PM82.4 °F78.8 °F89 %29.90 in10.0 miEast (90°)12.7 mphMostly Cloudy
12:13 PM84.2 °F78.8 °F84 %29.90 in10.0 miEast (90°)12.7 mphScattered Clouds
12:53 PM86.0 °F78.8 °F79 %29.89 in10.0 miEast (90°)11.5 mphMostly Cloudy
12:58 PM85.8 °F78.8 °F79 %29.86 in10.0 miEast (80°)11.5 mphMostly Cloudy
1:03 PM84.2 °F78.8 °F84 %29.89 in10.0 miEast (80°)13.8 mphMostly Cloudy
1:13 PM84.2 °F78.8 °F84 %29.88 in10.0 miEast (100°)11.5 mphMostly Cloudy
1:18 PM84.2 °F78.8 °F84 %29.88 in10.0 miEast (100°)11.5 mphMostly Cloudy
1:23 PM84.2 °F78.8 °F84 %29.88 in10.0 miESE (110°)8.1 mphScattered Clouds
1:58 PM85.8 °F78.4 °F78 %29.84 in10.0 miEast (90°)11.5 mphPartly Cloudy
2:58 PM84.6 °F77.5 °F79 %29.83 in10.0 miEast (80°)6.9 mphPartly Cloudy
3:58 PM82.8 °F77.5 °F84 %29.84 in10.0 miEast (90°)9.2 mphClear
4:43 PM82.4 °F78.8 °F89 %29.87 in10.0 miENE (70°)8.1 mphMostly Cloudy
4:53 PM82.4 °F77.0 °F84 %29.87 in10.0 miENE (70°)6.9 mphMostly Cloudy
4:58 PM81.9 °F77.7 °F87 %29.86 in10.0 miENE (70°)6.9 mphScattered Clouds
5:03 PM82.4 °F77.0 °F84 %29.88 in10.0 miENE (60°)6.9 mphMostly Cloudy
5:18 PM80.6 °F77.0 °F89 %29.88 in10.0 miENE (60°)6.9 mphMostly Cloudy
5:23 PM80.6 °F77.0 °F89 %29.88 in10.0 miENE (70°)6.9 mphScattered Clouds
5:58 PM80.2 °F77.2 °F90 %29.87 in10.0 miEast (90°)5.8 mphPartly Cloudy
6:00 PM80.6 °F77.0 °F89 %29.90 in10.0 miEast (80°)5.8 mphRainLight Rain
6:05 PM80.6 °F77.0 °F89 %29.90 in10.0 miEast (80°)5.8 mphRainLight Rain
6:20 PM80.6 °F77.0 °F89 %29.91 in10.0 miEast (100°)6.9 mphMostly Cloudy
6:35 PM80.6 °F77.0 °F89 %29.91 in10.0 miEast (90°)5.8 mphScattered Clouds
6:58 PM79.9 °F76.6 °F90 %29.89 in10.0 miEast (80°)6.9 mph0.00 inPartly Cloudy
7:58 PM79.9 °F75.9 °F88 %29.92 in10.0 miEast (80°)9.2 mphClear
8:58 PM80.2 °F77.4 °F91 %29.94 in10.0 miENE (60°)10.4 mphScattered Clouds
9:41 PM80.6 °F77.0 °F89 %29.96 in10.0 miENE (60°)12.7 mphLight Drizzle
9:50 PM80.6 °F77.0 °F89 %29.96 in10.0 miENE (60°)10.4 mphScattered Clouds
9:58 PM79.5 °F76.8 °F91 %29.94 in10.0 miENE (60°)11.5 mph0.00 inPartly Cloudy
10:58 PM79.3 °F77.2 °F93 %29.92 in10.0 miENE (60°)9.2 mphPartly Cloudy
11:58 PM79.0 °F77.0 °F94 %29.91 in10.0 miENE (60°)11.5 mphClear
Hourly data recorded from PGUA, located miles away from Pyga Beach, Guam







STORIES FROM OUR PARTNERS